LiveATC.Net - Listen to live air traffic control over the Internet!


ICAO: KTKI  IATA: TKI   Airport: Collin County Regional Airport at Mc Kinney
City: Dallas   State/Province: Texas
Country: United States   Continent: North America
KTKI METAR Weather: KTKI 281753Z 17011KT 10SM CLR 14/08 A2995 RMK AO2 SLP149 T01440078 10144 20017 58015
KTKI ADS-B Flight Tracking (ADSBExchange)
KTKI Flight Activity (FlightAware)
KTKI Airport Info   (iFlightPlanner)
KTKI VFR Sectional Chart   (iFlightPlanner) 
KTKI IFR Low Altitude Chart   (iFlightPlanner) 
KTKI IFR High Altitude Chart   (iFlightPlanner) 

KTKI Gnd/Twr
Feed Status: UP   Listeners: 0
Listen in your browser - HTML5 player (in browser, HTML5)
Click here to listen with your own player (launches your MP3 player)
Archive Access: KTKI Gnd/Twr
FacilityFrequency
McKinney Ground121.875
McKinney Tower118.825

NOTICE

Unauthorized use prohibited. See LiveATC.net Terms of Service


Airport/ARTCC Code
Frequency Search
(e.g., 124.400, 128.75)
Site-wide search
 


Browse Feeds
Top 50 Feeds
HF Oceanic Feeds
Coverage Map
Bad Weather Areas

LiveATC FAQ
Offer LiveATC feed
Contact LiveATC.net
Press Inquiries

LiveATC on iPhone
LiveATC on Android

LiveATC Mobile
(Mobile browser)

ATC Audio Archives
Interesting Recordings

LiveATC Forums


Home Page
About LiveATC.net


Terms of Use
Privacy Policy

AIRMETs/SIGMETs

FAA Airport Status
NAS Status
Arrival Demand


Server Software By:
Icecast.org
Liquidsoap